User: anonymous   Login
Location: A O Calhoun Middle School
(33.2198°N, 97.1397°W)
Time: 17:40:50
(UTC+00:00)
Language:

SPOT 1 Rocket Y - Orbit

View from above orbital plane
View from above orbital plane
View from above satellite
View from above satellite

Ground track
Ground track

The orbit data is extracted from the following two-line orbital elements,

1 17129U 86019Y   22279.14579185  .00000250  00000-0  12409-3 0  9992
2 17129  98.4505 330.4734 0033006 188.6491 229.7083 14.25064030814588
Epoch (UTC): 06 October 2022 03:29:56
Eccentricity: 0.0033006
inclination: 98.4505°
perigee height: 784 km
apogee height: 832 km
right ascension of ascending node: 330.4734°
argument of perigee: 188.6491°
revolutions per day: 14.25064030
mean anomaly at epoch: 229.7083°
orbit number at epoch: 81458

The dashed part of the orbit path shows where the satellite is in the earth's shadow,  

DLR